Regional Weather Roundup
Issued by NWS

Home | Current Version | Previous Version | Graphics & Text | Print | Product List | Glossary On
Versions: 1 2 3 4 5 6 7 8 9 10 11 12 13 14 15 16 17 18 19 20 21 22 23 24 25 26 27 28 29 30 31 32 33 34 35 36 37 38 39 40 41 42 43 44 45 46 47 48 49 50
000
ASUS45 KTFX 210610
RWRMT
MONTANA REGIONAL WEATHER ROUNDUP
NATIONAL WEATHER SERVICE GREAT FALLS MT
1200 AM MDT SAT OCT 21 2017

NOTE: "FAIR" INDICATES FEW OR NO CLOUDS BELOW 12000 FEET WITH NO
SIGNIFICANT WEATHER AND/OR OBSTRUCTIONS TO VISIBILITY.

MTZ001>007-043-210700-
WEST OF THE DIVIDE

CITY           SKY/WX    TMP DP  RH WIND       PRES   REMARKS
KALISPELL      CLOUDY    40  34  79 MISG      29.79R
MISSOULA       CLOUDY    41  33  73 S9        29.84R
BUTTE          CLOUDY    32  25  75 NE3       29.83R
MULLAN PASS    SNOW      29  27  92 VRB6      29.79R VSB 1/4 WCI  23
ANACONDA         N/A     34  21  60 CALM      29.84R
DEER LODGE       N/A     37  23  56 W10       29.84R WCI  30
EUREKA           N/A     43  34  70 MISG      29.77R
HAMILTON         N/A     37  32  81 SE6       29.86F
LIBBY            N/A     39  37  93 CALM      29.78R
PLAINS           N/A     40  35  82 MISG      29.86R
$$

MTZ008-052>055-210700-
SOUTHWEST MONTANA

CITY           SKY/WX    TMP DP  RH WIND       PRES   REMARKS
BOZEMAN        CLOUDY    37  25  61 SW9       29.81R WCI  30
DILLON         CLOUDY    34  18  52 S10       29.84R WCI  26
W YELLOWSTONE  CLOUDY    25  21  86 S7        29.84R WCI  17
ENNIS          CLOUDY    34  23  64 SE7       29.89R WCI  28
THREE FORKS      N/A     40  21  46 SW8       29.82R
TWIN BRIDGES     N/A     36  16  44 CALM      29.85R
$$

MTZ009-010-012-014-046-048-049-054-210700-
EAST SLOPES AND CENTRAL MONTANA

CITY           SKY/WX    TMP DP  RH WIND       PRES   REMARKS
CUT BANK       CLOUDY    41  22  46 W21G29    29.61R
GREAT FALLS    CLOUDY    39  27  62 SW16      29.66R WCI  30
MALMSTROM AFB  PTCLDY    41  30  65 SW18      29.67R
HELENA         CLOUDY    42  25  50 W21G39    29.74R
BOWMANS CRNR   MOCLDY    37  25  62 W17       29.67R WCI  27
CHOTEAU          N/A     43  19  39 W20G29    29.65R
FAIRFIELD      MOCLDY    42  17  36 W20G29    29.65R
POWER            N/A     35  24  66 W10       29.64R WCI  27
RAYNESFORD     MOCLDY    41  27  55 W24G30    29.65R
ULM            MOCLDY    41  28  59 W13G25    29.68R
$$

MTZ011-013-016-021-045-047-050-051-210700-
NORTH CENTRAL MONTANA

CITY           SKY/WX    TMP DP  RH WIND       PRES   REMARKS
HAVRE          LGT RAIN  42  39  89 W17G25    29.56R
LEWISTOWN      CLOUDY    43  24  47 W24G35    29.61R
N BAR RANCH    MOCLDY    41  23  48 NW23      29.62R
CHINOOK          N/A     45  39  81 SW15      29.52S
DENTON           N/A     42  26  53 W21       29.57R
GEYSER         MOCLDY    41  26  54 W23G29    29.63R
GRASS RANGE    MOCLDY    43  26  51 W23G31    29.57R
JUDITH GAP     CLOUDY    39  22  51 W15       29.63R WCI  31
WINIFRED       CLOUDY    44  27  50 W20G29    29.57R
$$

MTZ017>020-022>027-061-062-210700-
NORTHEAST MONTANA

CITY           SKY/WX    TMP DP  RH WIND       PRES   REMARKS
GLASGOW        CLOUDY    48  37  65 W22G29    29.42S
JORDAN           N/A     47  35  63 W17       29.52R
SIDNEY         PTCLDY    55  36  48 NW29G37   29.31S
WOLF POINT     CLOUDY    49  42  77 W24G31    29.38F
MALTA          CLOUDY    46  37  71 W26G35    29.46S
PLENTYWOOD       N/A     55  32  41 W18G24    29.31R
POPLAR           N/A     50  39  66 W14       29.37F
SCOBEY           N/A     54  31  41 W16       29.39R
$$

MTZ028>42-056>058-210700-
SOUTHCENTRAL AND SOUTHEAST MONTANA

CITY           SKY/WX    TMP DP  RH WIND       PRES   REMARKS
BAKER          PTCLDY    49  38  65 NW23G43   29.48R
BILLINGS       PTCLDY    44  28  53 W21G32    29.66R
LIVINGSTON     MOCLDY    39  27  62 W7G21     29.76R
MILES CITY     PTCLDY    47  38  71 W23G32    29.55R
BIG TIMBER     PTCLDY    39  27  60 W35G46    29.71R WCI  27
EKALAKA          N/A     46  35  65 W25       29.55R
FORSYTH          N/A     46  34  61 W14       29.56R
HARLOWTON      MOCLDY    40  24  53 W28G33    29.66R
LAUREL           N/A     45  25  45 W22G32    29.68R
$$

REGIONAL REPORTS...DAKOTAS

CITY           SKY/WX    TMP DP  RH WIND       PRES   REMARKS
WILLISTON        N/A    N/A N/A N/A MISG      29.29R
MINOT          CLEAR     65  50  58 S22G29    29.16R
DICKINSON      PTCLDY    57  33  40 NW26G39   29.32R
BEACH            N/A     52  34  50 NW14G20   29.44R
CROSBY           N/A     55  30  38 W33G45    29.23R
TIOGA            N/A     55  28  35 W37       29.25R
WATFORD CITY     N/A     55  34  44 W25G35    29.32R
BISMARCK       CLEAR     63  53  70 S12       29.28R
GRAND FORKS    CLOUDY    68  57  68 S18G31    29.36S
FARGO          CLOUDY    67  57  70 S24G37    29.40F
BUFFALO SD       N/A     54  42  64 W35       29.39R
RAPID CITY     CLOUDY    61  41  47 N32G41    29.44R
$$

REGIONAL REPORTS...WYOMING/IDAHO/WASHINGTON

CITY           SKY/WX    TMP DP  RH WIND       PRES   REMARKS
GILLETTE       CLOUDY    45  25  45 NW16G33   29.63R
SHERIDAN       CLOUDY    47  22  37 NW29G41   29.64R
BUFFALO WY     CLOUDY    45  18  34 N24G43    29.61R
CODY           CLEAR     39  23  52 W10G20    29.73R
YELLOWSTONE LA   N/A     25  21  85 VRB7G18   29.83R WCI  17
IDAHO FALLS    CLEAR     32  27  81 SW16      29.92R WCI  21
SALMON         CLOUDY    38  31  76 SW7       29.91R
BOISE          PTCLDY    42  32  67 NW5       30.02R
SPOKANE        PTCLDY    40  35  83 S15       29.85R
$$

REGIONAL REPORTS...ALBERTA

CITY           SKY/WX    TMP DP  RH WIND       PRES   REMARKS
EDMONTON       CLEAR     39  30  70 W8        29.52S
CALGARY        MOCLDY    37  32  81 W3        29.59R
LETHBRIDGE     MOCLDY    41  37  87 NW22      29.61R
MEDICINE HAT   LGT RAIN  43  39  87 W15       29.53R
$$

REGIONAL REPORTS...SASKATCHEWAN

CITY           SKY/WX    TMP DP  RH WIND       PRES   REMARKS
SWIFT CURRENT  CLOUDY    45  37  76 W21       29.35R
REGINA         CLOUDY    45  32  61 W14       29.21R
SASKATOON      PTCLDY    41  36  81 N9        29.27R
$$



USA.gov is the U.S. government's official web portal to all federal, state and local government web resources and services.